Location: Ca��n la Puerta
(32.5440°N, 116.6804°W)
Time: 00:36:15
(UTC+00:00)

Cosmos 1484 Rocket - Pass Details

Date: 15 June 2021
Orbit: 505 x 557 km, 97.4° (Epoch: 02 August)

Event Time Altitude Azimuth Distance (km) Brightness Sun altitude
Rises 12:04:38 0° 11° (N) 2,612 7.0 -7.0°
Reaches altitude 10° 12:06:44 10° 12° (NNE) 1,722 6.1 -6.7°
Maximum altitude 12:10:26 89° 89° (E) 510 2.7 -6.0°
Drops below altitude 10° 12:14:08 10° 192° (SSW) 1,715 4.9 -5.3°
Sets 12:16:12 0° 192° (SSW) 2,600 5.8 -5.0°
